Starlink 4290

operational
NORAD ID: 53006 Int'l Des: 2022-076 Owner: SPXS Country: US Constellation: starlink
LEOCIRCULAR

Starlink 4290について

説明を読み込み中...

リアルタイム位置

3D地球を読み込み中...

次回通過

高度履歴

Altitude vs Time

uPlot chart will show altitude changes over time

軌道要素

1 53006U 22076W 25260.11832147 -.00001278 00000-0 -62206-4 0 9993
2 53006 53.2157 153.3134 0001575 98.5633 261.5538 15.08834375176649
Epoch: Sep 17, 2025 • Age: 15 hours

現在のステータス

高度 546.2 km
速度 7.59 km/s
衛星直下点 -21.83°S, 79.92°E
打ち上げ日 Jul 7, 2022
運用期間 3.1 years
タイプ internet

技術仕様

分類 Payload
質量 297.00 kg
乾燥質量 275.00 kg
総質量 297.00 kg
長さ 0.20 m
直径 2.80 m
スパン 9.00 m
形状 Box + pan
製造者 SPXS
バスタイプ Starlink
フェーズステータス In Orbit
所有者/国 SPXS/US

大規模コンステレーション

Loading constellations...